Location: 埔里
(23.9503°N, 120.9728°E)
Time: 13:24:42
(UTC+08:00)

N. Korean satellite - Visible Passes

Search period start: 14 August 2020 00:00
Search period end: 24 August 2020 00:00
Orbit: 453 x 506 km, 97.2° (Epoch: 13 August)

Date Brightness Start Highest point End Pass type
(mag) Time Alt. Az. Time Alt. Az. Time Alt. Az.
14 Aug 7.8 05:05:13 10° NNE 05:08:41 46° E 05:12:10 10° S visible
15 Aug 9.5 04:40:09 10° NE 04:42:46 19° E 04:45:22 10° SE visible
18 Aug 8.6 04:55:07 10° NE 04:58:23 32° E 05:01:41 10° SSE visible
19 Aug 9.7 04:30:34 10° ENE 04:32:26 14° E 04:34:19 10° SE visible
21 Aug 7.4 05:10:23 10° NNE 05:13:59 58° E 05:17:36 10° S visible
22 Aug 9.2 04:45:05 10° NE 04:48:03 23° E 04:51:00 10° SSE visible
